星链-31001 (STARLINK-31001 )

导读 | 豆包AI

STARLINK-31001是美国SpaceX星链卫星互联网项目的卫星,于2023年12月7日发射入轨,属于星链星座部署中的一员。星链项目旨在构建全球卫星互联网星座,该卫星承担低轨卫星通信任务,为全球范围提供宽带互联网接入服务,是SpaceX推进大规模低轨卫星组网的组成部分,助力全球覆盖网络建设。

基本信息
目录编号:
58527
目录名称:
STARLINK-31001
国际标识:
2023-191V
轨道中心:
EARTH
卫星名称:
星链-31001
卫星全名:
星链-31001 (STARLINK-31001 )
卫星状态:
在轨 (已飞行875 天)
发射日期:
2023-12-07 UTC
国别 :
美国 (US)
星等 :
--
轨道信息
数据来源 国际轨道数据 AOE轨道数据
星历时间 2026-04-30T21:29:38+0800
8小时前
查看轨道信息
2026-04-26T05:00:00+0800
5天前
查看轨道信息
半长轴 6861.169km 6861.211km
偏心率 0.000116 0.0001455
轨道倾角 43.000° 43.001°
近地点辐角 279.014° 284.861°
升交点赤经 170.467° 196.940°
平近点角 81.058° 188.516°
近地点 482.236km 482.075km
远地点 483.828km 484.073km
周期 94.266分钟 94.267分钟
每日圈数 15.27586 15.275717
详细信息
固有亮度:
5
最大亮度:
0.3
卫星平台:
Starlink v2.0 mini
覆盖范围:
全球
运营商:
太空探索技术公司
运营商所在国:
美国
制造商(研发单位):
太空探索技术公司
制造商所在国:
美国
使用方式:
暂无
卫星简介
星链(Starlink)计划是由太空探索技术公司(SpaceX)提出的一个巨型低轨卫星互联网星座项目,计划在2019年至2024年间在太空搭建由约1.2万颗卫星组成的“星链”网络,其中1584颗将部署在地球上空550千米处的近地轨道,并从2020年开始工作。该卫星仍在工作。
2D轨道图
3D轨道图
轨道高度分析图
轨道倾角分析图
轨道综合分析图
查看轨道综合分析图